This demonstration page uses our WeatherBlox Daily Observations layout. Learn more.

Left ArrowRight Arrow

Hourly Observations for December 5, 2022

Temp ( °F °C ) Dew Point ( °F °C ) Humidity (%) Winds ( mph kmh ) Pressure ( in mb ) Visibility ( mi km ) Precip ( " mm )
12:54 am 00:54 Clear 32 0 18 -7.8 56 56 S 3 6 29.86 1011 10 16 0.00 0.00
1:54 am 01:54 Clear 31 -0.6 19 -7.2 61 61 SSE 3 6 29.84 1011 10 16 0.00 0.00
2:54 am 02:54 Clear 27 -2.8 18 -7.8 68 68 S 7 11 29.82 1010 10 16 0.00 0.00
3:54 am 03:54 Clear 30 -1.1 20 -6.7 66 66 S 7 11 29.80 1009 10 16 0.00 0.00
4:54 am 04:54 Clear 26 -3.3 17 -8.3 68 68 Calm 29.81 1010 10 16 0.00 0.00
5:54 am 05:54 Clear 24 -4.4 17 -8.3 74 74 S 3 6 29.80 1009 10 16 0.00 0.00
6:54 am 06:54 Clear 22 -5.6 16 -8.9 77 77 SSE 7 11 29.80 1009 10 16 0.00 0.00
7:54 am 07:54 Sunny 25 -3.9 17 -8.3 71 71 NNW 3 6 29.83 1010 10 16 0.00 0.00
8:54 am 08:54 Sunny 29 -1.7 18 -7.8 63 63 Calm 29.85 1011 10 16 0.00 0.00
9:54 am 09:54 Sunny 37 2.8 21 -6.1 52 52 N 9 15 29.85 1011 10 16 0.00 0.00
10:54 am 10:54 Sunny 42 5.6 24 -4.4 48 48 NNE 15 24 29.85 1011 10 16 0.00 0.00
11:54 am 11:54 Sunny 43 6.1 24 -4.4 47 47 N 16 26 29.85 1011 10 16 0.00 0.00
12:54 pm 12:54 Sunny 45 7.2 25 -3.9 45 45 NNE 16 26 29.83 1010 10 16 0.00 0.00
1:54 pm 13:54 Sunny 45 7.2 26 -3.3 47 47 N 15 24 29.85 1011 10 16 0.00 0.00
2:54 pm 14:54 Sunny 43 6.1 25 -3.9 49 49 N 17 28 29.86 1011 10 16 0.00 0.00
3:54 pm 15:54 Sunny 38 3.3 23 -5 54 54 N 18 30 29.91 1013 10 16 0.00 0.00
4:54 pm 16:54 Sunny 37 2.8 22 -5.6 54 54 NNE 17 28 29.93 1013 10 16 0.00 0.00
5:54 pm 17:54 Clear 34 1.1 20 -6.7 56 56 N 15 24 29.98 1015 10 16 0.00 0.00
6:54 pm 18:54 Clear 33 0.6 20 -6.7 58 58 N 13 20 30.00 1016 10 16 0.00 0.00
7:54 pm 19:54 Partly Cloudy 33 0.6 21 -6.1 61 61 N 14 22 30.00 1016 10 16 0.00 0.00
8:54 pm 20:54 Mostly Cloudy 32 0 20 -6.7 61 61 NNE 13 20 30.00 1016 10 16 0.00 0.00
9:54 pm 21:54 Cloudy 32 0 19 -7.2 58 58 N 15 24 30.02 1017 10 16 0.00 0.00
10:54 pm 22:54 Clear 30 -1.1 19 -7.2 63 63 NNE 10 17 30.01 1016 10 16 0.00 0.00
11:54 pm 23:54 Clear 28 -2.2 18 -7.8 65 65 NNE 10 17 30.01 1016 10 16 0.00 0.00

Powered by AerisWeather